sat.trackr.live / text

‹ back to catalog

STARLINK-33974

NORAD 63954 · 2025-099C

PAYLOAD ACTIVE UNKNOWN

§ Identity

Operator
Country
US
Launch date
2025-05-13
Launch site
AFETR
Launch vehicle
Mass (kg)
RCS (m²)

Purposes: comms

External: N2YO · Heavens-Above · Gunter

§ Orbital elements

Epoch: 2026-05-24T22:37:02.114112Z

Period
94.26 min
Inclination
43.0031°
Eccentricity
0.0001966
Mean motion
15.27632338 rev/d
Perigee alt
481.5 km
Apogee alt
484.2 km
Semi-major
6,861.0 km
B*
6.9769e-4
RAAN
105.9813°
Arg perigee
261.6537°
Mean anomaly
98.4091°
Rev number
5,899

§ Raw data

STARLINK-339741 63954U 25099C   26144.94238558  .00019017  00000+0  69769-3 0  99902 63954  43.0031 105.9813 0001966 261.6537  98.4091 15.27632338 58991

JSON: /api/v1/satellites/63954 · /tle

For live sub-satellite position, see the globe view (requires WebGL).

§ Visibility from observer

Set your observer location to see the next 7 days of passes ≥ 10°. The values pass through the URL so the page stays shareable.

No JS? Fill the form by hand. The geolocation button needs JavaScript.